Location: La Comballaz
(46.3780°N, 7.0817°E)
Time: 13:40:27
(UTC+00:00)

STARLINK-52 - Visible Passes

Search period start: 06 August 2020 00:00
Search period end: 16 August 2020 00:00
Orbit: 299 x 302 km, 53.0° (Epoch: 05 August)

Date Brightness Start Highest point End Pass type
(mag) Time Alt. Az. Time Alt. Az. Time Alt. Az.
06 Aug 2.8 20:04:08 10° SW 20:06:36 40° SE 20:09:04 10° ENE visible
06 Aug 4.8 21:38:23 10° W 21:39:50 23° WNW 21:39:50 23° WNW visible
07 Aug 2.3 20:12:38 10° WSW 20:15:13 89° NW 20:17:50 10° ENE visible
07 Aug 5.2 21:47:26 10° WNW 21:49:07 21° NNW 21:49:07 21° NNW visible
08 Aug 3.5 20:21:13 10° W 20:23:45 45° NNW 20:26:16 10° NE visible
08 Aug 5.5 21:56:16 10° NW 21:57:36 17° NNW 21:57:36 17° NNW visible
09 Aug 4.5 20:29:49 10° W 20:32:09 28° NNW 20:34:29 10° NE visible
09 Aug 5.8 22:04:48 10° NW 22:05:38 15° NNW 22:05:38 15° NNW visible
10 Aug 5.0 20:38:18 10° WNW 20:40:24 21° NNW 20:42:32 10° NE visible
10 Aug 6.0 22:12:59 10° NW 22:13:19 12° NW 22:13:19 12° NW visible
11 Aug 5.1 20:46:34 10° NW 20:48:32 19° N 20:50:16 11° NE visible
12 Aug 4.5 19:19:36 10° W 19:21:54 28° NNW 19:24:14 10° NE visible
12 Aug 5.0 20:54:31 10° NW 20:56:28 18° N 20:57:28 15° NNE visible
13 Aug 4.9 19:27:30 10° WNW 19:29:37 21° N 19:31:43 10° NE visible
13 Aug 4.7 21:02:08 10° NW 21:04:12 20° N 21:04:27 20° NNE visible
14 Aug 5.0 19:35:12 10° NW 19:37:10 19° N 19:39:08 10° NE visible
14 Aug 4.7 21:09:27 10° NW 21:11:14 24° N 21:11:14 24° N visible
15 Aug 4.9 19:42:36 10° NW 19:44:32 18° N 19:46:28 10° NE visible
15 Aug 5.0 21:16:31 10° NW 21:17:51 23° NNW 21:17:51 23° NNW visible
